Wind_Speed
9 9 9 9 9 9 10 10 9 9 8 7 6 5 5 5 5 6 6 6 7 7 7 7 8 8 8 9 9 9 9 9 9 12 12 8 7 11 9 11 14 15 17 18 16 14 12 11 11 10 8 7 6 4 3 3 4 4 4 2 1 1 2 2 3 6 9 12 12 13 14 13 13 13 13 12 13 14 13 11 12 11 12 17 20 24 24 22
9 8 8 9 9 10 10 10 10 10 9 8 7 7 6 5 5 6 6 6 6 6 7 7 8 8 8 8 8 9 9 9 10 12 10 6 7 11 13 13 15 16 18 20 18 15 13 13 12 11 10 7 6 3 2 2 3 4 4 2 2 4 3 3 4 6 9 13 13 12 13 13 14 15 14 12 13 14 13 13 14 16 18 21 24 24 22 21
8 8 8 8 9 9 10 10 10 10 10 9 8 7 7 6 6 6 6 6 6 6 7 7 8 7 8 8 8 8 7 8 8 6 7 8 9 11 15 15 15 17 19 19 17 14 12 12 12 11 9 7 5 3 2 2 2 2 4 2 4 4 6 7 4 5 10 15 14 13 14 14 15 15 12 12 14 13 12 14 15 18 22 24 25 24 22 20
7 7 7 8 8 9 10 11 11 11 11 10 9 8 8 7 6 6 6 6 6 6 6 7 7 7 8 7 8 6 6 7 2 1 4 7 9 11 16 16 15 18 19 17 15 12 10 10 11 10 8 6 5 5 3 2 2 2 3 4 5 3 7 8 4 7 13 15 14 14 14 15 14 12 13 14 12 9 11 14 17 21 25 27 26 24 22 20
6 6 6 7 9 10 11 12 12 12 12 11 10 9 8 8 7 6 6 6 6 6 6 7 7 7 7 7 6 5 4 3 4 2 2 6 9 11 16 16 15 19 21 18 14 11 11 11 11 9 8 5 5 5 2 1 3 2 3 6 7 6 6 7 7 10 14 14 13 14 13 14 14 12 14 12 7 7 11 13 17 23 26 27 28 25 22 20
5 5 6 7 8 10 11 12 12 12 12 12 11 10 9 8 7 6 6 6 6 5 6 6 6 7 7 6 5 3 4 1 4 1 2 5 9 10 14 16 15 18 21 20 16 13 12 12 12 10 8 6 5 3 2 1 4 2 6 7 7 8 7 8 10 12 14 14 13 12 12 14 14 12 12 8 7 10 12 13 18 23 24 25 26 24 22 21
4 4 5 7 8 9 11 12 12 13 12 12 11 11 10 9 7 6 5 6 6 6 5 6 6 6 6 6 5 3 5 3 4 1 2 3 9 10 12 15 16 18 21 19 17 15 14 14 13 9 7 4 4 2 2 1 2 2 5 7 7 10 10 11 12 12 13 12 11 11 12 13 13 12 10 8 11 13 14 15 20 23 23 23 23 23 22 20
4 4 5 6 8 9 10 12 12 12 12 12 11 11 10 10 8 6 5 5 6 6 5 5 5 5 5 5 4 4 5 3 2 1 1 4 8 9 12 16 17 19 20 19 18 16 14 14 12 9 6 3 2 0 1 2 1 2 5 7 8 10 11 12 12 12 12 9 10 11 12 11 11 11 10 9 12 14 16 18 21 23 23 21 21 21 20 19
3 3 5 6 9 10 10 11 11 12 12 12 11 10 10 9 8 6 5 5 5 6 5 4 4 5 5 4 4 5 3 4 3 1 1 5 8 10 14 17 18 19 18 18 17 15 14 14 12 7 3 2 1 1 1 2 1 3 4 7 9 11 11 12 12 11 11 9 10 11 11 10 12 11 9 10 13 16 18 19 21 23 22 21 20 20 20 19
3 3 5 7 9 10 11 10 11 12 12 12 11 9 8 8 8 6 4 4 4 5 5 4 4 5 5 4 4 4 2 3 4 2 3 7 8 11 15 17 18 18 17 17 16 16 13 11 11 6 2 2 1 1 1 1 3 5 5 9 10 11 10 11 13 10 9 9 9 9 9 11 12 6 5 10 13 17 18 19 21 22 21 20 20 20 19 18
3 3 5 7 9 10 10 10 11 12 13 12 10 8 6 6 6 5 4 4 3 4 4 3 4 4 5 3 5 3 3 2 4 3 5 10 9 11 14 17 17 16 17 16 14 14 10 8 10 7 2 2 2 0 2 2 5 7 8 11 10 10 9 10 12 10 9 5 3 7 10 10 8 3 7 14 14 17 19 19 20 20 20 20 19 19 18 17
3 3 5 7 9 10 11 11 12 13 12 10 8 5 4 4 4 3 3 4 3 3 3 4 3 4 5 3 6 3 3 3 5 6 7 10 10 12 14 16 15 14 15 15 14 12 8 7 10 8 1 1 3 2 4 3 4 8 8 7 9 9 8 7 9 9 8 3 1 8 9 7 6 5 12 15 15 17 18 18 19 19 20 19 19 18 17 17
3 3 5 7 9 10 11 12 13 13 11 8 5 3 2 3 2 2 3 4 3 3 3 4 3 4 4 3 4 4 5 5 7 9 8 9 9 11 13 15 15 12 11 12 13 11 7 7 9 7 2 2 1 2 4 4 5 8 7 4 8 8 5 5 6 9 8 5 4 5 4 6 7 9 14 15 15 17 17 18 18 19 20 20 19 18 17 16
4 3 5 7 9 11 11 12 13 12 10 7 4 4 4 3 2 3 3 3 3 3 4 4 4 4 3 2 1 5 8 7 8 9 9 10 9 10 11 12 13 12 11 9 9 10 8 6 6 6 5 4 1 1 4 5 6 6 5 5 6 4 5 5 6 10 8 5 6 2 0 5 7 10 15 15 16 17 17 17 18 19 19 19 18 17 17 16
5 4 6 7 9 11 11 12 12 11 9 6 6 6 5 3 3 3 3 3 3 3 4 4 5 4 3 3 2 7 9 8 7 8 9 10 8 9 10 9 10 10 10 8 8 10 8 6 6 6 6 4 3 5 6 6 6 5 3 5 5 4 6 6 6 9 7 5 7 4 1 3 5 11 15 15 16 16 16 17 17 19 19 19 18 17 17 16
6 5 6 8 10 11 11 11 10 10 7 6 6 6 4 4 3 2 3 4 4 4 5 5 5 4 4 1 6 8 8 7 7 7 10 10 7 8 11 10 10 9 9 9 8 9 8 8 7 6 5 5 6 7 6 6 6 5 4 4 5 7 7 7 8 9 8 8 8 5 3 2 4 10 14 14 15 15 14 16 18 19 19 19 18 17 16 16
7 6 7 9 10 11 10 10 10 9 6 6 7 6 6 5 2 1 2 4 6 7 6 5 3 3 2 4 8 8 7 7 8 8 10 11 8 9 12 12 11 10 10 9 9 9 10 9 7 5 6 6 5 5 6 7 6 6 6 4 4 6 7 7 8 9 10 9 8 6 3 3 4 10 14 15 15 15 14 15 18 18 19 18 17 17 16 16
8 7 7 9 11 10 9 9 9 7 6 6 7 7 8 7 4 2 2 5 8 8 6 2 2 2 2 6 6 6 6 8 9 9 11 11 10 10 12 11 12 13 12 10 9 11 11 10 9 6 6 6 5 7 7 4 5 6 6 3 5 5 6 6 7 10 12 10 9 9 5 4 7 11 14 15 15 15 14 15 17 18 18 18 17 16 16 16
8 7 7 9 10 9 7 8 8 6 5 5 7 8 7 6 4 1 4 8 7 6 3 2 3 3 3 6 5 5 7 9 10 10 12 11 10 11 11 11 13 15 13 10 9 12 12 9 9 7 7 8 8 8 5 1 2 5 5 2 5 7 5 5 7 10 13 9 9 11 7 5 9 11 13 15 16 15 14 15 16 17 18 18 17 17 16 17
8 7 7 8 9 7 6 6 6 6 6 5 7 7 6 6 2 1 4 7 6 5 5 2 5 5 1 6 5 5 9 10 8 9 11 10 11 13 12 13 14 13 11 9 9 11 12 9 8 9 8 9 8 6 3 2 3 5 6 3 3 4 5 6 7 10 12 8 8 11 9 7 10 12 13 16 16 15 15 15 16 18 18 18 18 17 17 17
7 6 7 8 8 6 4 5 4 5 5 5 7 6 6 8 5 3 6 5 3 4 6 4 6 6 2 3 2 5 9 9 8 11 11 10 13 14 12 13 12 9 9 10 10 9 10 9 9 11 7 5 6 4 2 2 3 5 6 4 3 2 4 6 6 10 12 7 6 9 8 10 12 12 14 16 15 16 17 17 17 18 18 18 18 17 17 16
6 6 6 7 7 5 3 3 3 3 4 4 6 4 5 7 6 7 8 5 1 3 4 3 5 5 2 3 5 9 9 9 12 12 11 13 13 10 11 12 10 8 9 11 9 8 9 9 11 12 5 3 4 4 3 2 3 5 5 5 3 1 3 5 6 9 10 5 5 9 7 9 12 11 12 15 16 16 17 17 17 19 19 18 17 18 18 16
5 5 5 6 6 3 2 2 2 3 3 4 4 3 4 7 7 8 8 6 1 2 1 2 3 2 3 3 7 11 10 10 13 13 13 14 10 8 12 12 9 9 11 11 9 9 9 9 11 10 6 6 5 5 5 4 4 4 4 6 4 2 3 2 7 9 9 5 5 9 7 6 9 9 9 14 17 15 15 15 14 17 19 18 18 18 18 17
4 4 4 5 5 3 1 2 2 2 4 7 5 3 6 8 9 9 6 5 0 4 2 1 1 1 2 3 8 12 9 8 11 14 15 12 8 9 12 11 9 10 11 12 12 11 7 4 8 10 6 8 6 7 8 6 5 3 3 5 5 7 6 3 6 8 9 8 7 8 6 5 9 10 8 12 14 13 14 15 14 16 18 18 18 18 18 18
4 4 3 4 5 3 1 2 3 4 7 8 6 6 8 9 9 8 6 4 3 5 2 2 1 0 1 3 9 9 7 8 8 13 15 11 9 9 7 9 9 9 12 14 12 11 6 5 7 10 8 8 6 7 8 7 5 4 5 4 5 8 4 2 7 8 6 7 9 9 5 4 9 12 11 10 10 12 15 17 18 18 18 18 18 18 18 18
3 4 3 4 5 3 3 2 4 8 7 5 5 7 8 9 10 8 6 3 5 3 1 3 1 2 4 4 8 8 8 8 7 11 14 10 7 6 6 8 6 6 11 12 9 7 6 8 9 10 10 9 8 7 7 7 6 3 6 6 5 6 3 3 7 7 5 2 7 11 6 0 4 9 12 12 12 14 14 17 19 18 17 19 19 19 19 19
3 3 3 3 4 4 5 4 6 9 6 3 6 8 8 9 10 8 6 3 6 2 1 3 1 3 4 4 8 7 6 12 10 10 12 9 7 6 6 7 5 5 9 9 6 4 6 8 8 9 11 10 8 7 6 8 8 2 6 5 7 6 5 7 7 7 4 1 5 10 7 1 2 7 13 16 15 15 15 15 17 18 18 19 20 20 20 20
2 3 3 3 4 5 5 6 7 7 5 5 8 8 8 10 9 6 6 2 6 2 1 4 3 3 4 5 6 3 7 14 10 10 11 8 7 6 6 7 7 8 10 8 5 6 8 9 8 10 10 9 9 7 5 9 8 3 5 2 5 6 8 9 8 6 3 2 4 8 8 4 1 5 12 16 15 15 16 16 16 19 20 20 21 21 21 20
2 2 3 4 3 5 5 6 7 6 7 8 9 8 10 9 6 6 4 4 3 2 1 2 2 5 5 6 5 4 10 9 3 10 12 8 6 5 3 5 8 8 10 11 5 5 7 7 7 9 8 7 9 6 4 9 7 3 2 3 4 6 8 8 7 5 3 5 5 7 10 6 1 5 8 11 12 13 14 14 16 22 22 21 21 22 22 22
2 2 3 4 4 6 7 6 7 8 8 9 9 9 8 5 5 5 2 5 1 1 2 1 1 4 7 8 6 6 8 4 5 13 11 7 7 4 2 4 5 6 8 11 7 4 7 4 3 8 8 5 6 5 4 9 7 1 3 6 5 5 4 5 5 4 4 6 4 6 10 6 2 4 7 7 8 11 13 12 14 20 24 23 22 23 24 24
1 2 3 4 4 7 8 5 7 10 9 9 9 7 4 4 4 1 6 3 2 2 2 1 3 4 6 5 5 7 7 6 9 12 9 7 7 6 5 5 5 5 6 7 7 5 7 6 4 6 8 5 4 5 5 6 6 5 7 7 5 4 3 5 5 4 6 5 1 2 7 6 4 3 6 8 6 8 12 13 14 19 24 27 25 24 24 25
1 2 3 4 5 7 7 6 9 11 9 10 7 4 6 3 1 5 6 1 2 2 1 2 3 2 3 3 4 6 4 6 8 8 6 7 6 5 4 4 5 6 5 6 8 7 7 8 7 7 9 9 8 7 6 5 6 8 8 7 7 6 5 6 7 6 7 5 2 3 6 6 4 0 5 8 7 7 9 12 16 22 26 29 27 26 25 25
2 2 4 5 6 8 8 8 11 11 10 9 4 7 6 2 6 4 3 1 2 3 2 0 1 1 2 4 5 4 2 4 5 5 3 5 5 4 1 2 2 4 3 6 7 6 7 9 10 9 8 11 12 7 7 6 8 9 8 7 8 7 7 8 8 6 6 5 4 3 3 4 4 2 4 5 5 5 8 11 16 23 27 29 29 28 26 25
1 3 5 6 7 8 9 11 12 10 9 6 5 7 2 5 5 1 3 6 4 2 1 1 2 3 2 2 5 3 2 4 4 4 6 6 5 5 4 3 3 5 2 4 4 4 6 6 10 12 8 12 14 11 7 6 8 10 9 8 9 8 7 8 7 6 6 5 6 5 4 3 3 4 4 3 4 5 7 9 13 18 23 26 28 28 27 26
2 4 6 6 7 9 10 12 11 8 7 6 7 1 3 5 4 2 5 6 3 2 2 2 4 6 4 3 4 2 2 2 4 5 5 6 4 4 4 4 3 4 3 3 2 3 5 1 7 11 7 10 15 14 10 6 6 9 9 9 10 8 7 5 5 6 5 4 5 6 4 1 3 5 5 4 4 5 7 9 12 15 18 21 24 26 27 26
2 4 5 6 8 10 11 12 9 4 4 8 3 4 5 4 5 4 5 5 5 4 1 5 4 4 5 5 6 4 1 0 5 5 3 3 3 3 1 3 2 3 4 3 2 3 5 2 8 9 7 10 14 15 13 9 4 6 8 10 8 6 7 6 6 5 5 6 5 6 6 3 5 5 5 4 4 5 6 9 13 14 16 20 22 25 27 26
2 3 4 6 9 10 11 10 5 2 4 6 2 5 2 3 5 5 5 6 4 4 5 3 1 2 3 6 5 6 5 4 5 5 3 4 3 3 1 2 2 2 4 5 2 1 3 2 8 9 10 11 10 10 14 14 8 4 6 10 7 3 6 6 6 6 6 8 5 6 8 8 6 4 3 5 5 5 5 8 12 14 15 18 21 24 26 27
1 1 2 7 9 10 9 6 5 2 2 1 6 5 2 4 5 6 6 5 4 4 5 1 2 2 2 4 5 5 6 6 5 5 4 4 2 3 1 1 3 1 4 6 4 2 3 4 7 7 8 11 9 7 10 13 13 7 4 6 8 5 6 7 6 7 7 8 6 7 8 8 7 4 5 6 5 6 5 7 10 13 14 17 19 21 23 24
0 2 1 8 10 8 7 7 4 1 1 2 5 4 2 4 6 7 7 5 4 4 3 3 2 1 1 1 4 5 4 4 5 6 3 1 2 3 3 1 2 2 1 5 5 1 3 5 4 6 5 8 9 8 8 10 12 9 6 5 7 6 6 7 7 7 7 8 7 7 7 6 4 2 6 7 6 5 6 7 8 11 13 15 17 19 22 23
2 3 2 8 9 6 6 5 2 2 3 4 3 4 2 3 6 7 7 6 5 5 4 3 2 1 2 1 3 3 1 2 4 4 3 2 3 4 3 4 3 3 2 4 4 2 3 3 2 6 8 7 8 9 10 8 10 11 8 7 8 6 6 6 7 8 7 8 7 6 7 5 2 4 6 8 6 4 4 6 7 10 12 13 15 19 22 25
3 2 4 7 6 6 4 2 3 2 3 4 4 5 3 4 5 6 7 6 5 5 5 5 3 2 2 2 3 3 1 3 4 2 3 2 1 3 4 5 5 2 1 4 3 2 2 3 4 4 7 7 6 7 7 5 5 10 10 9 9 8 7 6 8 9 7 8 6 6 7 2 4 3 4 7 6 4 4 6 7 9 10 11 14 17 20 22
3 1 4 6 5 4 1 1 4 2 2 4 3 4 3 4 5 5 6 6 4 4 4 4 5 4 2 2 3 2 2 3 3 2 3 4 5 5 5 6 5 4 4 2 2 2 2 3 5 5 5 3 4 4 3 5 5 7 8 10 9 8 9 9 8 8 7 9 8 5 6 1 4 3 4 6 6 6 6 7 8 8 8 10 12 14 16 18
1 2 4 5 6 2 3 1 4 2 4 5 2 3 4 4 5 5 6 7 6 4 4 4 5 5 4 3 2 2 2 3 3 3 4 6 7 7 6 6 4 5 4 2 2 2 2 3 4 5 4 1 4 4 3 2 6 8 8 9 8 7 9 8 8 7 7 10 8 6 7 3 5 3 4 5 7 7 6 7 8 9 8 9 10 12 14 15
2 3 3 5 6 1 4 1 3 2 5 4 3 5 5 6 8 7 7 8 7 5 4 5 5 4 4 3 2 3 2 1 3 4 3 4 5 5 6 6 4 3 3 3 2 0 2 2 3 5 6 6 6 6 6 6 8 7 5 4 5 7 8 6 6 5 6 10 10 9 8 3 5 4 4 6 7 7 7 7 7 8 9 9 9 10 12 13
2 2 2 4 7 3 2 3 2 2 5 3 3 5 3 4 7 6 7 8 8 7 5 4 4 3 3 2 2 3 3 1 2 3 3 4 5 6 6 7 6 5 4 5 5 3 2 2 3 6 7 6 5 4 4 4 6 4 2 1 3 8 9 7 6 6 7 8 8 10 7 4 7 6 6 7 6 6 7 7 7 7 7 9 10 9 10 12
3 2 3 3 4 5 6 4 2 1 3 1 2 3 2 4 5 5 5 5 7 8 5 4 3 1 2 1 2 4 4 2 2 3 3 3 4 5 6 6 7 6 4 3 4 4 3 1 1 3 2 0 2 3 3 2 2 3 2 2 3 5 7 7 8 8 8 7 8 9 7 4 7 8 8 8 8 7 7 7 8 7 7 8 10 10 10 11
3 0 1 1 3 4 6 4 2 1 1 1 1 1 2 3 3 3 4 5 6 6 4 5 5 3 3 2 2 5 5 4 5 4 3 2 2 3 3 4 7 6 2 1 2 4 3 2 2 3 6 6 6 8 5 3 2 2 2 1 2 3 5 9 9 5 5 8 8 6 8 8 8 10 10 9 9 8 8 8 7 8 7 8 9 9 10 11
2 2 2 1 1 1 3 4 3 2 2 1 1 0 1 2 3 3 4 3 4 6 4 4 6 5 5 3 1 3 4 4 5 3 2 2 1 1 1 2 6 7 2 1 1 3 4 3 2 4 7 7 7 8 7 5 5 4 3 3 1 3 4 7 6 4 4 6 4 3 9 10 7 10 10 9 9 8 8 8 6 7 7 7 8 9 10 10
2 4 4 2 1 3 4 4 2 2 3 2 1 1 1 2 4 4 3 2 2 5 4 3 6 6 5 3 2 2 3 2 4 4 2 2 2 1 0 1 4 6 5 1 2 3 3 2 1 1 5 7 7 8 7 5 5 5 6 6 4 3 2 1 0 4 4 3 3 3 7 3 4 9 9 9 10 10 9 8 7 7 7 6 7 8 9 9
2 3 3 3 2 4 4 3 2 2 2 1 1 2 2 2 4 4 3 4 2 3 3 4 7 6 5 6 4 4 5 5 4 4 2 1 2 2 2 2 4 5 5 4 3 2 2 2 2 3 4 6 5 5 5 4 2 4 7 8 7 5 4 4 4 5 3 2 2 3 6 5 6 8 10 10 11 11 10 9 8 7 7 7 6 7 8 9
4 5 5 4 2 3 3 3 2 2 1 2 2 3 2 3 4 5 5 6 5 4 4 4 5 4 4 7 7 7 7 4 4 5 3 3 4 4 3 4 5 5 4 5 4 3 2 3 4 4 6 6 2 2 1 0 2 2 7 10 10 8 6 5 5 6 4 2 0 4 5 4 5 7 9 11 11 12 11 10 9 8 7 7 8 9 10 11
3 4 4 3 2 2 3 4 3 2 1 3 3 2 3 4 4 2 2 4 4 5 5 4 2 1 3 7 8 8 5 4 5 6 5 6 7 6 5 6 7 6 5 5 3 3 3 4 5 4 6 6 3 4 5 4 6 3 5 8 8 8 8 6 5 6 5 3 2 2 1 3 5 7 7 9 10 11 11 9 9 9 8 8 9 11 12 12
Wind_Direction
355 348 344 340 334 330 326 322 318 315 312 311 311 310 310 306 304 299 294 295 295 300 300 301 301 301 303 301 300 297 294 288 280 277 269 269 247 225 218 200 193 193 181 170 174 176 166 171 177 178 182 193 207 214 210 244 274 275 274 265 282 55 103 106 133 134 125 136 146 154 152 137 135 136 132 134 136 137 130 121 121 115 117 128 133 139 143 146
356 353 349 344 339 336 332 327 321 316 311 307 303 302 302 301 303 299 297 295 293 297 297 302 301 302 306 302 305 302 298 295 288 287 276 257 233 215 208 198 188 187 178 172 176 173 171 175 176 179 187 194 195 201 205 230 273 278 281 290 22 59 110 120 110 124 133 141 143 151 151 139 135 137 143 143 139 146 138 127 127 121 121 127 134 139 143 147
359 358 354 351 348 342 338 334 328 322 314 308 301 297 295 295 298 301 302 296 293 295 295 299 302 305 307 306 310 308 309 307 298 293 271 241 229 210 203 199 186 182 179 176 176 177 180 177 175 181 193 201 191 202 214 221 271 300 296 344 50 70 121 126 120 130 137 140 141 147 146 138 138 142 152 147 142 151 146 139 140 137 137 137 139 142 146 150
5 2 359 360 359 352 347 342 336 330 321 313 305 296 291 288 291 298 303 301 293 290 293 298 302 306 308 313 312 318 325 304 261 184 248 223 221 212 202 197 184 177 175 178 178 180 184 178 180 187 202 201 180 206 211 207 269 330 335 30 77 98 116 116 122 135 136 139 140 143 141 137 142 147 150 146 143 151 150 149 148 147 146 144 144 146 149 153
12 9 7 5 3 357 351 346 342 336 328 319 309 301 293 286 285 292 302 306 298 290 293 295 300 306 308 317 315 325 314 261 125 113 230 191 204 209 203 195 181 174 173 180 179 178 182 179 186 195 207 195 172 204 193 178 264 294 49 69 96 105 109 111 123 136 135 138 141 144 142 137 142 144 148 148 136 136 145 149 147 149 149 147 147 149 152 157
15 14 11 8 4 355 349 345 342 337 332 323 312 304 296 292 285 284 299 309 307 296 289 293 300 306 309 317 317 314 276 259 58 346 200 179 200 201 201 191 179 175 175 180 178 178 181 182 191 195 200 194 178 187 76 74 265 293 71 71 85 96 114 125 130 138 136 142 148 144 136 136 141 139 144 134 96 118 134 141 144 147 149 148 148 150 155 160
18 13 7 9 2 353 347 343 341 338 334 327 317 306 298 297 290 283 294 308 313 302 293 299 300 306 310 315 329 309 265 305 3 274 174 187 199 193 193 186 180 175 172 176 178 179 179 186 196 195 195 184 170 169 51 107 268 314 62 69 84 98 119 133 135 142 142 147 143 137 139 141 141 135 139 119 103 121 129 135 141 144 147 149 150 152 156 160
19 9 5 5 358 352 346 344 344 339 334 330 321 309 300 297 297 289 287 305 313 304 304 306 304 314 310 321 337 288 239 256 305 125 142 191 189 188 182 182 180 171 171 177 178 180 180 190 196 194 195 150 142 183 53 179 215 354 66 83 101 106 120 133 136 143 142 140 138 144 146 140 139 133 130 122 121 131 131 135 142 144 148 151 153 154 157 160
16 7 3 360 356 352 346 345 344 341 337 331 324 312 301 296 299 295 288 306 310 305 313 313 317 320 313 338 317 266 211 228 236 81 76 162 177 182 179 183 177 168 175 179 180 183 183 193 192 191 205 136 132 356 12 234 110 78 89 95 112 116 122 133 138 146 142 143 153 151 139 132 138 130 115 123 134 138 135 137 144 148 150 154 156 156 159 161
17 12 360 357 357 351 346 344 342 341 338 334 328 316 303 296 302 304 301 313 309 307 318 328 340 327 329 352 286 251 140 215 205 121 86 126 160 178 177 184 173 168 177 176 182 187 189 198 186 185 236 163 198 348 5 308 88 113 109 95 107 115 122 135 138 141 137 148 170 154 132 133 148 154 124 134 143 143 141 140 148 153 154 157 158 158 161 163
22 12 358 357 355 350 347 343 341 339 337 335 331 322 308 301 309 314 313 318 313 309 319 343 357 336 340 339 274 269 96 170 167 145 106 116 151 175 178 179 166 168 176 174 181 186 192 194 178 186 214 163 193 112 80 62 101 131 127 105 108 112 114 133 141 141 136 141 183 145 128 134 158 201 130 141 150 148 146 146 153 159 158 160 160 159 162 163
23 12 358 355 352 350 347 344 344 342 341 337 334 336 319 313 322 321 317 319 320 317 322 345 360 350 338 297 264 263 112 125 143 139 111 118 152 171 176 174 160 165 173 176 179 181 187 179 185 202 211 173 210 141 100 111 130 146 155 125 123 127 112 123 139 147 147 129 125 134 134 154 164 131 129 146 154 150 151 152 157 162 161 161 161 160 162 165
20 7 358 354 350 350 348 347 348 351 351 347 352 8 353 347 343 332 334 336 342 339 341 345 352 351 328 279 244 204 133 109 130 131 113 118 142 158 168 167 160 161 165 178 181 178 182 174 194 209 227 271 210 96 107 146 161 159 182 169 142 146 129 121 138 150 150 142 157 153 155 166 147 130 142 153 155 153 156 157 161 164 163 163 163 163 164 167
9 358 356 354 350 350 351 351 355 2 2 1 19 33 24 24 4 357 3 6 17 4 354 347 346 351 319 276 230 164 139 112 122 129 123 125 135 146 154 160 164 163 159 167 175 178 182 173 198 211 222 267 359 162 180 172 185 170 180 193 171 157 137 140 154 158 153 145 163 176 174 154 137 140 153 158 161 162 161 161 165 166 165 165 166 168 167 170
360 355 354 353 351 352 354 356 2 8 10 21 41 41 37 30 13 21 37 35 28 3 357 343 347 351 285 256 168 149 134 113 122 132 133 135 141 143 143 147 153 160 162 162 168 179 183 175 201 217 206 230 257 225 191 174 195 176 163 194 177 141 135 146 162 169 162 145 164 173 141 160 153 152 157 164 168 171 168 164 166 168 168 167 168 172 171 171
357 352 352 354 353 354 359 1 5 9 20 48 48 42 36 17 14 45 47 31 10 358 354 331 335 329 283 207 135 139 125 124 143 144 141 142 147 148 144 141 138 144 154 160 168 175 182 186 202 226 211 209 228 218 185 178 189 173 189 204 157 144 147 146 154 172 165 145 169 196 161 151 172 158 160 170 175 179 177 168 168 169 169 170 171 173 173 171
358 352 353 354 354 359 4 4 5 15 43 59 47 39 25 5 348 26 30 12 356 344 333 318 317 303 288 140 141 137 124 141 150 148 149 148 151 153 147 142 144 145 139 146 161 166 179 191 196 213 220 222 227 218 202 194 186 179 200 203 137 146 158 148 148 167 170 160 171 192 170 143 167 166 167 176 180 184 184 174 170 171 172 173 173 175 176 175
357 353 354 354 357 4 10 8 9 28 60 57 41 24 13 1 331 311 337 345 341 322 310 297 234 253 178 159 150 122 128 142 135 142 153 148 144 148 149 147 148 149 145 146 157 169 179 190 198 200 207 216 219 216 209 202 199 191 198 183 142 160 174 153 144 160 171 172 169 175 175 153 161 171 174 177 182 187 188 180 173 173 174 174 176 179 180 180
356 354 355 354 360 11 18 14 17 43 59 49 30 5 357 353 320 278 347 333 313 291 313 136 217 291 110 140 128 109 138 139 125 137 148 149 148 149 154 152 152 158 161 161 165 178 184 189 200 203 201 200 205 216 220 308 257 201 195 194 155 165 168 136 125 150 168 171 174 183 178 160 166 175 180 178 181 190 187 180 177 175 176 177 180 183 182 183
356 354 355 354 3 17 26 19 27 53 50 36 25 359 340 344 310 142 357 313 273 285 316 282 261 289 102 127 121 123 142 139 130 144 151 152 151 147 150 156 161 173 179 174 163 174 189 194 198 203 201 193 194 217 257 309 272 206 190 192 182 176 147 131 131 152 171 175 178 187 178 173 179 177 182 179 179 191 188 181 182 178 178 181 182 183 183 185
355 356 356 355 6 22 32 24 32 50 38 34 29 6 355 356 344 6 346 294 239 288 289 273 265 263 210 141 152 145 148 145 138 151 151 148 153 149 151 164 171 185 191 173 149 161 194 207 201 200 198 177 174 185 233 258 208 193 192 184 194 191 114 129 147 158 178 194 177 179 184 187 186 178 178 177 180 193 190 183 185 183 182 184 185 185 184 183
356 360 358 0 12 25 32 24 22 22 14 24 27 13 2 355 340 343 331 297 278 318 286 254 259 261 222 192 176 155 158 148 139 152 149 151 174 176 163 179 186 178 176 168 155 164 195 215 199 185 166 134 160 181 217 258 200 183 185 185 175 66 83 132 153 164 179 204 174 170 193 195 180 172 174 180 188 195 193 188 187 185 186 187 187 188 185 183
2 5 7 9 15 30 41 8 355 358 349 349 1 351 334 334 333 338 317 288 308 38 331 240 251 250 202 195 166 163 174 157 146 158 157 159 187 187 170 188 193 169 168 177 183 180 192 213 189 159 154 178 176 191 207 222 217 201 185 196 172 140 268 188 154 174 177 187 190 173 191 198 163 159 176 189 193 196 196 194 192 193 190 188 189 190 188 185
17 12 20 16 13 37 31 312 318 332 334 330 321 303 320 326 329 336 313 279 104 80 60 195 255 240 197 178 168 180 188 163 155 162 167 171 170 166 177 188 180 170 180 190 195 192 187 181 157 148 171 198 185 187 207 215 204 198 202 205 155 157 241 285 142 171 176 191 208 175 182 205 164 163 184 193 196 199 196 194 202 206 196 189 189 190 190 188
35 22 34 16 12 34 344 305 299 322 327 320 307 299 315 325 326 328 303 258 130 96 89 128 169 203 142 160 166 182 183 159 159 160 169 182 168 162 173 179 186 182 182 189 198 200 169 113 155 167 177 200 204 193 207 228 210 185 198 197 133 145 210 254 150 171 192 205 205 187 206 218 170 173 180 179 190 196 192 192 200 204 197 193 191 190 193 191
46 33 42 13 8 14 357 330 309 329 328 303 296 302 313 325 324 320 291 225 117 80 125 139 154 133 133 154 153 177 186 155 143 153 167 182 177 175 161 170 211 195 172 183 205 211 139 133 178 186 184 196 215 208 196 227 241 185 165 172 156 148 182 219 183 194 226 205 184 199 225 257 166 187 177 170 186 189 188 194 197 196 195 195 193 193 194 192
53 40 38 17 5 357 356 337 323 335 329 278 297 309 312 315 319 314 272 180 102 24 293 101 53 109 117 149 162 196 173 138 143 157 169 177 173 202 194 176 200 170 166 184 200 192 135 145 172 182 194 200 213 216 183 214 248 113 112 167 191 184 200 225 225 226 257 31 168 200 218 228 237 208 177 170 183 186 188 196 197 195 197 197 197 195 194 193
61 36 24 19 1 353 352 333 330 332 309 297 307 312 308 306 317 300 261 110 77 329 329 76 66 102 108 147 175 215 126 137 160 159 170 184 174 214 218 183 185 162 172 197 177 148 164 180 179 179 199 206 212 217 171 208 242 73 90 191 205 201 208 222 236 236 258 285 206 195 208 221 204 184 173 169 179 186 188 194 196 198 200 200 199 197 196 195
57 22 15 13 357 358 350 332 334 322 307 316 316 314 310 306 304 263 249 71 60 275 98 86 109 123 147 153 158 170 144 150 162 141 164 191 181 231 253 174 183 156 171 217 221 127 166 196 191 191 205 208 212 212 171 214 235 78 119 210 196 204 208 214 235 241 238 256 238 186 196 221 143 158 172 172 185 192 187 190 195 198 201 202 201 199 197 197
44 15 10 7 6 357 347 338 336 328 322 322 317 315 310 290 260 248 105 66 16 118 118 250 115 137 178 165 136 143 151 138 113 138 161 180 173 202 50 121 183 162 170 221 243 114 123 147 187 211 225 226 217 204 188 226 242 172 200 209 190 195 209 218 230 249 240 238 242 183 194 227 249 171 179 187 198 192 185 185 189 195 200 201 201 199 197 197
32 13 10 11 8 350 348 343 329 329 326 318 317 310 273 231 246 334 75 67 315 86 152 198 118 161 202 178 130 131 138 124 137 156 165 167 173 171 149 152 186 187 174 203 223 176 152 167 175 202 224 235 229 204 186 216 230 226 224 212 194 191 209 226 214 225 237 222 208 194 200 222 248 171 163 179 181 175 183 185 181 190 199 200 201 199 197 196
32 18 16 10 358 347 350 340 326 326 320 315 315 264 227 207 32 47 70 195 260 39 16 103 111 175 204 175 133 131 133 116 148 179 172 177 184 155 172 198 177 191 202 190 197 193 191 202 185 180 204 217 224 209 180 190 206 218 224 207 202 204 202 220 214 215 229 204 155 223 214 220 247 122 134 162 162 155 171 177 179 189 198 199 199 198 195 194
42 30 13 360 352 351 347 339 335 331 326 324 290 230 239 49 56 42 38 38 37 31 12 57 107 157 187 186 143 135 153 107 150 195 179 203 200 146 129 327 201 240 243 184 186 185 190 200 195 193 195 205 222 219 180 185 199 209 216 203 206 212 207 218 215 214 228 202 167 195 219 221 217 140 112 155 168 168 170 171 178 191 198 198 196 195 193 191
52 26 8 355 351 353 345 345 346 341 339 324 243 228 252 62 68 354 25 47 50 48 58 228 193 167 194 190 123 148 203 111 139 192 175 199 206 170 163 144 216 272 280 180 200 206 203 193 189 197 191 188 209 230 221 197 193 205 217 217 221 223 220 226 218 214 230 211 172 170 200 225 186 133 109 137 174 198 203 189 180 187 196 197 194 192 189 189
45 14 5 3 358 354 350 352 352 348 336 286 245 238 55 66 58 23 31 27 10 49 94 183 207 180 156 113 119 156 311 91 157 193 184 196 197 177 169 135 179 249 257 203 176 197 239 255 156 181 184 179 197 222 235 223 194 199 210 221 228 230 228 238 242 243 254 238 189 188 222 253 118 133 135 148 184 199 208 204 188 182 187 191 192 191 190 190
30 8 8 9 1 359 360 357 356 1 302 272 259 63 59 51 25 11 15 351 340 3 144 176 203 201 149 142 147 150 300 26 175 181 151 155 134 99 103 78 110 245 265 246 169 174 236 172 136 165 189 194 203 211 213 222 215 180 200 217 228 254 249 231 233 246 262 257 217 203 233 218 149 157 155 162 190 188 193 199 189 181 179 182 186 188 190 191
7 14 22 9 3 8 10 7 23 67 285 285 45 66 48 44 21 359 359 341 332 312 263 191 170 277 151 148 147 147 165 166 184 195 155 155 130 72 104 91 75 269 295 293 257 178 264 196 141 169 197 194 209 216 204 216 229 192 204 210 198 252 264 239 236 228 227 245 222 196 229 229 198 184 162 168 169 157 174 182 175 173 174 178 182 185 188 190
2 37 30 11 11 15 20 44 81 89 299 326 89 83 24 47 36 8 3 340 316 285 276 358 49 292 205 157 132 140 177 179 186 189 155 169 147 52 327 95 95 300 301 275 248 135 279 254 148 167 198 175 183 216 205 207 222 241 281 219 191 209 224 214 238 234 220 237 227 200 225 240 229 195 159 163 134 119 145 159 163 167 171 177 180 181 184 185
263 214 70 17 12 21 44 83 101 4 348 84 99 94 33 42 47 25 12 349 326 317 323 30 33 249 230 169 121 136 203 200 179 175 155 171 116 72 342 11 81 16 353 247 250 135 254 265 159 154 167 162 175 205 206 193 206 236 282 234 203 227 232 213 224 233 233 240 230 213 219 228 232 135 125 129 109 109 136 148 161 164 167 175 174 172 173 176
271 239 78 19 9 43 76 92 78 12 68 72 67 78 47 27 47 38 21 9 358 359 20 30 353 148 123 126 122 127 214 171 161 175 156 120 112 105 49 11 342 14 71 225 250 220 224 268 222 152 147 181 194 198 211 200 188 204 225 219 206 219 239 235 224 223 239 247 233 229 228 203 96 65 94 111 109 107 128 144 158 158 162 169 172 173 173 177
262 237 73 19 17 77 103 100 68 50 88 92 73 70 50 359 14 36 31 24 27 29 32 33 27 59 109 141 125 121 149 142 144 152 135 132 88 90 63 5 320 316 209 215 212 222 234 255 257 188 171 202 189 180 224 260 213 200 204 215 213 210 221 229 221 215 231 248 240 241 242 184 86 78 102 114 122 123 135 151 156 156 158 161 171 181 179 179
253 209 67 20 37 95 198 109 90 68 71 87 72 50 32 348 357 23 24 17 31 47 43 43 38 36 52 70 92 128 132 112 115 107 105 88 47 42 34 355 312 280 271 241 118 29 304 268 268 245 213 210 90 127 250 305 270 225 214 219 216 211 215 220 221 210 216 238 246 260 258 157 95 111 109 111 123 126 144 162 162 162 165 164 171 179 175 173
281 64 56 22 47 91 255 129 115 115 73 88 99 64 44 19 22 27 21 19 24 34 46 51 38 33 40 35 52 105 70 60 73 77 91 91 67 39 14 357 308 269 281 289 101 78 271 249 262 250 229 189 88 136 190 241 237 231 225 226 229 227 221 223 238 234 222 227 225 237 247 190 108 109 108 116 129 132 149 165 164 165 168 173 171 169 169 169
71 73 42 16 35 328 265 76 109 111 92 110 115 88 74 44 33 24 24 30 23 11 34 55 46 39 36 17 40 57 27 52 84 71 85 97 73 42 19 9 336 303 344 358 10 344 247 243 255 244 213 184 166 167 174 190 210 221 221 231 269 266 247 242 258 258 242 231 217 221 236 178 116 127 136 140 144 144 155 161 159 159 161 168 163 152 160 169
150 124 85 40 41 40 34 41 32 95 105 116 90 79 90 76 50 22 18 32 27 15 26 52 37 34 49 45 89 66 26 43 97 94 101 99 89 65 36 23 6 4 25 1 327 287 260 255 259 253 232 207 190 179 176 181 192 204 222 247 263 252 244 243 243 236 236 233 222 229 237 128 125 158 161 159 163 158 159 158 151 145 145 157 159 151 159 170
210 189 147 112 75 77 86 66 7 92 107 127 97 63 39 86 77 36 15 27 33 24 24 39 16 1 71 69 104 85 58 61 104 135 126 104 101 71 34 25 29 27 29 346 307 271 243 199 252 265 255 223 88 84 50 33 168 174 173 200 217 222 234 240 236 235 236 229 227 233 232 162 153 172 172 168 170 163 158 159 154 147 141 146 152 156 163 169
220 213 36 120 119 116 118 103 54 71 70 340 22 34 19 78 97 61 35 30 24 10 12 40 25 16 59 45 79 85 72 83 100 113 107 91 109 90 46 34 40 33 11 253 287 268 233 166 111 96 97 87 86 95 87 72 95 100 99 133 179 184 213 227 232 265 272 239 231 210 206 211 186 171 174 174 169 164 164 168 161 150 145 141 141 147 153 158
190 104 47 60 135 110 112 90 52 74 96 48 18 342 37 69 73 61 51 40 20 357 352 55 46 39 49 22 9 91 92 105 104 92 76 73 69 205 149 67 43 29 352 209 16 304 256 186 138 112 111 101 97 107 107 98 88 76 60 46 72 161 199 227 236 339 333 258 258 193 206 223 192 160 167 168 165 170 171 164 150 141 143 143 142 145 142 142
100 109 113 140 76 54 74 80 84 104 94 77 80 84 46 62 76 65 26 349 34 20 360 51 56 43 53 42 19 77 64 63 99 91 56 53 45 354 36 76 34 22 11 34 62 354 292 187 168 207 142 125 113 115 114 105 96 85 65 46 45 102 118 161 52 19 355 302 308 236 205 196 130 144 149 149 158 168 165 151 141 147 151 147 148 150 143 138
116 124 135 152 126 102 105 125 170 153 113 148 142 91 60 43 76 87 37 353 29 67 43 65 66 47 52 64 65 71 46 15 60 83 19 343 55 29 29 33 3 4 15 24 31 2 294 201 217 267 200 152 118 105 113 111 93 82 68 47 40 55 65 61 42 14 349 352 341 212 175 121 106 127 129 137 153 163 163 152 142 146 151 152 153 149 144 141
118 131 148 170 146 125 144 158 190 213 156 158 135 115 126 85 80 99 77 34 31 61 55 55 67 56 64 72 63 61 57 34 51 70 44 36 54 45 40 30 356 340 8 21 5 344 312 230 218 243 227 186 129 15 57 15 267 124 69 38 31 38 40 51 44 13 355 359 235 188 174 134 121 127 129 137 152 165 164 151 141 141 142 141 134 126 130 129
94 124 150 193 190 160 183 173 190 235 131 92 99 121 131 112 112 131 100 75 63 56 45 27 14 2 83 71 46 30 38 59 77 86 87 82 78 73 65 47 29 13 5 0 345 352 345 273 235 238 241 217 214 296 307 297 263 203 68 25 19 31 33 48 53 29 12 345 280 204 49 69 122 150 145 141 158 171 162 148 146 146 137 125 117 114 117 115
Height
1526 1525 1524 1523 1522 1521 1520 1520 1519 1519 1519 1519 1518 1518 1517 1517 1516 1516 1516 1515 1515 1515 1514 1514 1514 1514 1513 1513 1513 1513 1514 1514 1514 1514 1514 1515 1515 1516 1517 1518 1519 1521 1522 1524 1526 1527 1529 1530 1530 1531 1532 1531 1531 1530 1529 1530 1528 1528 1526 1526 1526 1524 1527 1529 1528 1529 1529 1534 1536 1537 1539 1539 1542 1545 1546 1548 1549 1550 1551 1553 1554 1556 1557 1559 1561 1563 1566 1568
1526 1525 1524 1523 1522 1521 1520 1519 1519 1518 1518 1518 1517 1517 1517 1516 1516 1515 1515 1515 1515 1514 1514 1514 1513 1513 1513 1513 1513 1513 1513 1513 1513 1513 1513 1514 1514 1515 1515 1517 1518 1520 1522 1524 1526 1528 1529 1529 1530 1530 1531 1530 1529 1529 1528 1528 1528 1528 1524 1523 1524 1526 1529 1529 1528 1528 1528 1533 1535 1537 1539 1539 1542 1544 1546 1547 1549 1550 1551 1553 1555 1557 1559 1561 1563 1565 1567 1569
1525 1524 1524 1523 1522 1521 1520 1519 1518 1518 1517 1517 1517 1517 1516 1516 1516 1515 1515 1514 1514 1514 1513 1513 1513 1513 1513 1512 1512 1512 1512 1513 1513 1512 1512 1513 1513 1514 1515 1516 1518 1520 1522 1525 1526 1528 1529 1529 1530 1530 1530 1528 1528 1528 1528 1528 1527 1525 1524 1527 1528 1526 1527 1529 1530 1530 1530 1532 1535 1538 1539 1540 1542 1544 1545 1546 1548 1550 1549 1552 1554 1556 1560 1562 1564 1566 1568 1570
1525 1524 1523 1523 1522 1521 1520 1519 1518 1517 1517 1516 1516 1516 1516 1516 1515 1515 1515 1514 1514 1513 1513 1513 1513 1513 1512 1512 1512 1512 1512 1512 1512 1512 1511 1511 1512 1513 1514 1516 1518 1520 1523 1526 1527 1529 1530 1530 1530 1530 1529 1527 1526 1528 1527 1527 1527 1524 1525 1529 1529 1526 1528 1531 1532 1531 1532 1534 1536 1538 1539 1541 1543 1544 1545 1545 1548 1550 1549 1551 1552 1555 1559 1561 1564 1566 1568 1571
1525 1524 1523 1523 1522 1521 1520 1519 1518 1517 1516 1516 1515 1515 1515 1515 1515 1515 1514 1514 1513 1513 1513 1512 1512 1512 1512 1512 1512 1512 1512 1511 1510 1511 1510 1510 1511 1512 1513 1516 1518 1520 1523 1526 1527 1529 1529 1530 1530 1529 1528 1526 1525 1527 1526 1526 1525 1523 1524 1525 1525 1526 1530 1532 1533 1533 1534 1536 1537 1538 1539 1541 1542 1544 1545 1545 1548 1549 1550 1552 1553 1556 1559 1561 1563 1566 1569 1571
1525 1524 1523 1523 1522 1521 1520 1519 1518 1517 1516 1515 1514 1514 1514 1514 1514 1514 1514 1514 1513 1513 1512 1512 1512 1512 1511 1512 1511 1512 1512 1510 1509 1510 1510 1510 1511 1512 1513 1516 1518 1520 1522 1525 1527 1528 1529 1530 1530 1528 1526 1525 1524 1525 1526 1526 1525 1524 1524 1523 1524 1527 1530 1533 1534 1535 1536 1537 1538 1538 1539 1541 1542 1544 1546 1547 1547 1549 1551 1553 1555 1557 1560 1563 1564 1567 1570 1572
1525 1524 1523 1523 1522 1521 1520 1519 1517 1516 1515 1515 1514 1513 1513 1513 1514 1514 1514 1513 1513 1512 1512 1512 1512 1511 1511 1511 1511 1511 1511 1511 1510 1510 1510 1510 1510 1512 1514 1516 1518 1520 1522 1525 1527 1528 1528 1529 1528 1526 1525 1525 1524 1524 1525 1526 1524 1524 1526 1526 1527 1529 1531 1534 1535 1536 1537 1538 1538 1539 1540 1541 1542 1544 1547 1548 1549 1550 1552 1554 1556 1558 1562 1564 1566 1568 1570 1573
1525 1524 1523 1523 1522 1521 1520 1518 1517 1516 1515 1514 1513 1512 1512 1512 1513 1513 1513 1513 1513 1512 1512 1512 1511 1511 1511 1511 1511 1511 1511 1511 1510 1509 1510 1510 1510 1512 1514 1516 1518 1520 1523 1525 1526 1527 1528 1528 1527 1526 1525 1525 1524 1523 1524 1526 1525 1525 1527 1528 1528 1530 1533 1534 1536 1537 1538 1539 1540 1540 1541 1541 1543 1544 1547 1548 1550 1552 1553 1555 1557 1559 1562 1565 1567 1569 1572 1574
1525 1524 1524 1523 1522 1521 1520 1518 1517 1516 1514 1513 1512 1512 1511 1511 1512 1512 1513 1513 1512 1512 1512 1512 1511 1511 1511 1511 1512 1510 1509 1510 1510 1510 1509 1509 1510 1512 1513 1515 1517 1520 1523 1525 1526 1527 1528 1527 1527 1527 1526 1525 1525 1524 1524 1526 1528 1526 1527 1528 1528 1531 1534 1535 1537 1538 1539 1541 1541 1540 1541 1543 1544 1545 1548 1550 1551 1553 1554 1556 1558 1560 1563 1565 1568 1570 1572 1574
1525 1524 1524 1523 1522 1521 1519 1518 1517 1516 1514 1513 1512 1511 1511 1511 1511 1512 1512 1512 1512 1512 1511 1511 1511 1511 1511 1511 1511 1508 1508 1510 1510 1510 1510 1509 1510 1512 1514 1516 1518 1521 1524 1525 1526 1527 1527 1527 1527 1528 1527 1525 1524 1525 1524 1525 1526 1526 1527 1528 1530 1532 1535 1536 1538 1539 1540 1541 1541 1541 1542 1544 1545 1545 1549 1551 1551 1553 1555 1557 1559 1561 1563 1566 1568 1571 1573 1575
1525 1524 1523 1522 1521 1520 1519 1518 1517 1515 1514 1512 1511 1511 1510 1511 1511 1511 1512 1512 1512 1511 1511 1511 1511 1511 1511 1511 1510 1508 1508 1510 1510 1510 1510 1510 1511 1513 1515 1516 1519 1522 1524 1525 1526 1527 1527 1528 1528 1528 1527 1524 1525 1525 1524 1524 1525 1526 1528 1529 1532 1533 1535 1537 1538 1540 1541 1542 1543 1543 1543 1545 1546 1545 1547 1551 1552 1554 1555 1557 1560 1561 1564 1566 1569 1571 1573 1575
1524 1524 1523 1522 1521 1520 1519 1518 1516 1515 1513 1512 1511 1510 1510 1510 1511 1511 1511 1511 1511 1511 1511 1511 1511 1511 1510 1511 1510 1509 1509 1510 1510 1511 1511 1511 1512 1514 1515 1517 1520 1522 1524 1525 1526 1527 1527 1528 1528 1528 1526 1525 1524 1524 1526 1526 1525 1527 1527 1529 1534 1534 1536 1539 1539 1541 1541 1543 1544 1545 1549 1549 1546 1546 1548 1551 1553 1554 1556 1557 1560 1562 1564 1566 1569 1571 1573 1575
1524 1524 1523 1522 1521 1520 1519 1517 1516 1514 1513 1511 1511 1510 1510 1510 1511 1511 1511 1511 1511 1511 1511 1511 1511 1511 1510 1510 1509 1509 1510 1510 1510 1511 1511 1512 1513 1514 1516 1518 1520 1522 1524 1526 1526 1527 1528 1528 1529 1528 1527 1525 1524 1525 1527 1525 1526 1527 1525 1527 1533 1536 1540 1541 1540 1542 1542 1544 1543 1545 1555 1554 1547 1547 1549 1551 1553 1554 1556 1557 1560 1562 1564 1566 1568 1571 1573 1575
1524 1523 1522 1522 1521 1520 1518 1517 1515 1514 1513 1511 1511 1511 1510 1510 1511 1511 1511 1511 1511 1511 1511 1511 1511 1510 1510 1509 1509 1509 1510 1510 1511 1512 1512 1513 1514 1515 1517 1518 1520 1522 1523 1525 1526 1527 1527 1528 1529 1529 1528 1526 1524 1526 1525 1525 1525 1524 1525 1524 1526 1536 1543 1541 1540 1541 1543 1546 1543 1546 1556 1554 1548 1549 1549 1551 1553 1554 1555 1556 1559 1561 1563 1566 1568 1570 1572 1574
1524 1523 1522 1521 1521 1520 1518 1517 1515 1514 1513 1512 1511 1511 1511 1511 1511 1511 1511 1511 1511 1511 1511 1511 1511 1511 1510 1509 1509 1509 1510 1511 1512 1512 1513 1515 1516 1517 1518 1519 1521 1522 1523 1525 1526 1527 1528 1529 1530 1528 1527 1526 1526 1525 1523 1525 1523 1522 1534 1532 1523 1534 1543 1541 1540 1540 1542 1546 1544 1547 1557 1555 1549 1549 1549 1551 1553 1553 1554 1555 1558 1560 1562 1565 1567 1569 1571 1573
1523 1523 1522 1521 1520 1519 1518 1517 1515 1514 1513 1512 1512 1511 1511 1511 1511 1512 1511 1511 1512 1511 1511 1511 1510 1511 1510 1508 1509 1510 1510 1512 1512 1513 1514 1515 1517 1518 1519 1520 1521 1523 1524 1525 1526 1527 1528 1529 1529 1527 1526 1525 1524 1522 1522 1526 1525 1524 1537 1534 1522 1530 1540 1540 1541 1539 1539 1544 1545 1547 1555 1556 1550 1547 1549 1551 1553 1554 1554 1554 1557 1559 1561 1564 1567 1569 1570 1573
1523 1522 1522 1521 1520 1519 1518 1517 1516 1515 1514 1513 1513 1512 1512 1512 1511 1512 1512 1512 1511 1511 1511 1510 1510 1511 1509 1508 1509 1510 1511 1512 1512 1513 1513 1515 1517 1518 1519 1520 1522 1524 1524 1526 1527 1528 1529 1529 1529 1528 1525 1522 1519 1519 1525 1532 1529 1525 1528 1526 1521 1526 1531 1536 1540 1538 1538 1543 1546 1547 1551 1554 1550 1547 1550 1551 1553 1554 1554 1555 1556 1558 1561 1563 1566 1568 1570 1572
1523 1522 1522 1521 1520 1519 1518 1517 1516 1515 1514 1514 1513 1513 1512 1512 1511 1512 1512 1511 1511 1511 1510 1510 1510 1510 1509 1508 1509 1510 1511 1511 1511 1513 1514 1515 1516 1518 1520 1521 1522 1524 1524 1526 1526 1527 1529 1527 1526 1526 1524 1523 1520 1520 1528 1532 1526 1523 1523 1522 1524 1526 1526 1531 1535 1536 1537 1541 1546 1549 1551 1553 1550 1548 1549 1551 1553 1553 1553 1555 1556 1558 1560 1563 1565 1567 1569 1571
1522 1522 1521 1520 1519 1519 1518 1517 1516 1515 1515 1514 1514 1513 1513 1512 1511 1511 1511 1511 1510 1509 1508 1509 1509 1508 1507 1508 1509 1510 1510 1511 1512 1513 1514 1515 1516 1518 1519 1521 1522 1523 1523 1523 1525 1526 1526 1525 1526 1527 1525 1523 1521 1518 1523 1523 1519 1520 1520 1518 1522 1525 1525 1526 1529 1531 1534 1541 1547 1549 1551 1552 1551 1550 1549 1550 1552 1553 1553 1554 1556 1558 1559 1562 1564 1566 1568 1570
1522 1521 1521 1520 1519 1519 1518 1517 1517 1516 1516 1515 1514 1514 1512 1511 1509 1509 1511 1510 1510 1508 1507 1508 1509 1507 1507 1508 1509 1510 1510 1511 1512 1513 1514 1515 1516 1518 1519 1521 1522 1522 1521 1519 1522 1523 1523 1525 1527 1525 1521 1518 1517 1516 1518 1518 1517 1519 1521 1521 1520 1521 1524 1525 1528 1530 1531 1539 1545 1545 1549 1551 1550 1549 1548 1550 1552 1552 1552 1554 1555 1557 1559 1561 1562 1564 1567 1569
1521 1521 1521 1520 1519 1518 1518 1518 1517 1517 1516 1515 1515 1514 1513 1513 1510 1510 1511 1509 1508 1509 1508 1508 1508 1507 1507 1508 1509 1509 1510 1511 1513 1514 1514 1515 1516 1517 1519 1520 1520 1520 1518 1516 1520 1522 1523 1525 1523 1520 1517 1515 1516 1518 1518 1518 1518 1520 1522 1525 1524 1522 1525 1526 1527 1529 1529 1536 1543 1543 1547 1549 1547 1548 1548 1549 1551 1551 1550 1552 1555 1556 1558 1560 1561 1564 1566 1568
1521 1521 1520 1520 1519 1518 1518 1518 1517 1517 1516 1516 1516 1515 1515 1515 1513 1513 1512 1508 1507 1508 1507 1507 1507 1507 1507 1508 1508 1509 1509 1510 1512 1514 1514 1515 1516 1515 1517 1518 1517 1517 1515 1516 1520 1524 1526 1523 1517 1516 1517 1518 1519 1519 1519 1520 1519 1521 1523 1527 1528 1527 1528 1527 1526 1528 1529 1537 1544 1544 1547 1548 1545 1546 1548 1549 1549 1550 1550 1551 1553 1555 1557 1559 1561 1563 1565 1568
1521 1520 1520 1520 1518 1518 1518 1517 1517 1517 1517 1516 1516 1516 1515 1514 1513 1513 1512 1509 1506 1507 1507 1507 1507 1507 1508 1508 1508 1508 1508 1507 1510 1514 1513 1515 1515 1514 1516 1515 1514 1515 1516 1517 1518 1523 1526 1519 1512 1514 1519 1520 1522 1521 1521 1522 1519 1518 1522 1528 1531 1532 1533 1531 1528 1529 1528 1535 1541 1542 1546 1547 1545 1547 1548 1549 1549 1548 1550 1551 1552 1555 1555 1557 1560 1562 1564 1566
1521 1520 1520 1519 1518 1518 1517 1517 1517 1516 1516 1516 1515 1516 1514 1514 1513 1512 1511 1508 1505 1506 1507 1507 1507 1507 1507 1507 1508 1508 1507 1507 1509 1512 1513 1513 1514 1514 1513 1512 1513 1515 1516 1515 1515 1518 1519 1514 1511 1516 1520 1520 1522 1523 1522 1522 1520 1518 1520 1524 1527 1531 1532 1529 1527 1529 1528 1532 1533 1537 1549 1547 1543 1551 1550 1548 1551 1549 1550 1552 1553 1555 1555 1557 1559 1561 1563 1565
1520 1520 1519 1518 1518 1518 1517 1517 1517 1516 1517 1515 1515 1515 1513 1513 1512 1512 1511 1507 1505 1506 1506 1507 1507 1507 1507 1507 1507 1507 1507 1507 1508 1510 1513 1513 1513 1513 1512 1512 1513 1514 1514 1514 1514 1515 1515 1515 1515 1518 1521 1521 1523 1523 1521 1520 1519 1520 1520 1519 1522 1527 1528 1526 1527 1530 1532 1536 1528 1530 1552 1550 1535 1543 1548 1546 1550 1550 1549 1551 1552 1553 1554 1556 1558 1560 1562 1564
1520 1519 1519 1518 1518 1517 1517 1517 1516 1517 1516 1515 1515 1514 1513 1513 1511 1512 1510 1503 1505 1508 1505 1506 1506 1506 1507 1506 1507 1508 1507 1508 1509 1510 1512 1513 1513 1512 1512 1512 1511 1511 1512 1513 1514 1512 1512 1515 1516 1518 1522 1523 1524 1522 1520 1520 1519 1521 1518 1516 1520 1524 1527 1528 1526 1529 1532 1534 1527 1524 1545 1555 1541 1539 1542 1544 1548 1548 1548 1548 1548 1550 1552 1554 1556 1559 1561 1562
1520 1519 1519 1518 1518 1518 1518 1517 1517 1516 1515 1515 1515 1512 1513 1512 1510 1512 1509 1506 1511 1510 1505 1505 1506 1506 1506 1506 1507 1507 1507 1507 1510 1512 1512 1513 1513 1512 1512 1512 1512 1512 1510 1513 1518 1514 1512 1518 1518 1519 1521 1523 1525 1523 1519 1520 1521 1521 1516 1515 1520 1523 1528 1529 1526 1528 1524 1523 1527 1523 1530 1549 1551 1539 1534 1539 1544 1546 1546 1546 1546 1548 1551 1552 1554 1557 1559 1561
1519 1519 1518 1518 1518 1518 1517 1517 1517 1516 1515 1515 1513 1513 1513 1510 1511 1511 1508 1515 1519 1509 1504 1506 1505 1507 1507 1507 1508 1506 1505 1504 1507 1512 1512 1513 1513 1512 1511 1510 1511 1513 1511 1514 1520 1516 1513 1519 1519 1519 1522 1523 1521 1518 1517 1519 1522 1520 1517 1517 1519 1520 1525 1526 1524 1524 1521 1523 1532 1525 1523 1544 1552 1537 1529 1534 1539 1542 1544 1543 1544 1546 1548 1550 1552 1555 1557 1559
1519 1519 1518 1518 1518 1518 1517 1517 1516 1515 1515 1513 1512 1513 1511 1509 1513 1507 1505 1518 1519 1506 1506 1507 1505 1507 1507 1506 1507 1505 1505 1504 1505 1509 1512 1513 1513 1512 1510 1509 1509 1512 1514 1513 1514 1514 1513 1516 1516 1517 1520 1519 1516 1514 1516 1520 1520 1517 1517 1517 1518 1519 1520 1522 1524 1523 1524 1533 1533 1523 1522 1540 1551 1541 1533 1535 1535 1536 1539 1539 1541 1543 1546 1548 1550 1553 1556 1558
1519 1519 1518 1518 1518 1518 1517 1516 1515 1515 1513 1512 1512 1511 1510 1511 1510 1507 1514 1522 1513 1505 1507 1506 1504 1506 1505 1504 1505 1504 1504 1506 1506 1509 1512 1512 1512 1512 1510 1510 1510 1511 1515 1514 1512 1513 1514 1516 1516 1516 1517 1515 1513 1515 1517 1519 1518 1517 1519 1519 1520 1522 1521 1523 1524 1523 1534 1540 1527 1518 1517 1527 1544 1543 1533 1532 1528 1526 1531 1535 1538 1540 1542 1546 1547 1550 1553 1556
1519 1519 1519 1518 1518 1517 1516 1516 1515 1513 1512 1512 1510 1509 1511 1509 1502 1508 1522 1520 1508 1506 1506 1504 1505 1505 1503 1502 1503 1505 1504 1505 1507 1508 1510 1511 1511 1511 1511 1513 1513 1513 1517 1517 1515 1514 1515 1518 1517 1515 1516 1515 1515 1517 1518 1518 1518 1520 1520 1521 1527 1532 1532 1533 1530 1531 1545 1544 1525 1517 1514 1521 1539 1536 1523 1522 1517 1516 1523 1529 1533 1537 1539 1541 1544 1547 1550 1553
1519 1519 1518 1518 1518 1517 1516 1516 1514 1512 1512 1510 1509 1510 1508 1506 1505 1512 1517 1511 1510 1510 1505 1505 1506 1504 1503 1502 1503 1505 1504 1505 1507 1505 1506 1507 1508 1509 1509 1509 1511 1517 1521 1518 1515 1515 1516 1515 1514 1515 1516 1515 1518 1519 1520 1520 1520 1522 1520 1523 1537 1546 1550 1554 1548 1542 1543 1536 1523 1516 1517 1525 1531 1519 1511 1514 1512 1512 1517 1521 1527 1533 1535 1538 1540 1544 1547 1550
1519 1519 1518 1518 1517 1516 1515 1515 1512 1511 1510 1508 1509 1508 1503 1509 1519 1517 1508 1507 1512 1510 1505 1507 1506 1504 1505 1504 1505 1506 1505 1507 1508 1505 1506 1506 1506 1509 1510 1508 1507 1513 1516 1512 1514 1517 1517 1515 1512 1516 1516 1514 1516 1517 1521 1523 1521 1523 1521 1525 1537 1547 1560 1565 1553 1544 1539 1528 1520 1516 1520 1529 1526 1514 1509 1510 1510 1511 1514 1518 1524 1528 1530 1533 1536 1541 1544 1547
1519 1519 1518 1518 1516 1516 1515 1513 1512 1510 1508 1508 1507 1505 1506 1517 1522 1513 1506 1507 1509 1507 1506 1508 1506 1506 1506 1504 1506 1506 1506 1509 1508 1507 1509 1508 1508 1510 1511 1512 1510 1510 1509 1511 1514 1513 1517 1518 1511 1512 1514 1512 1513 1512 1512 1514 1517 1520 1516 1519 1526 1531 1546 1553 1544 1542 1539 1526 1520 1522 1526 1526 1523 1518 1511 1508 1510 1511 1513 1516 1520 1524 1527 1530 1533 1537 1541 1544
1519 1519 1519 1517 1516 1516 1514 1513 1512 1509 1508 1507 1503 1504 1512 1520 1516 1510 1510 1509 1506 1507 1507 1507 1506 1506 1506 1506 1507 1506 1506 1509 1508 1507 1508 1507 1508 1508 1509 1512 1512 1510 1511 1514 1514 1510 1516 1516 1504 1505 1508 1507 1512 1510 1505 1509 1517 1516 1511 1517 1521 1514 1521 1533 1532 1530 1528 1527 1527 1527 1524 1515 1513 1514 1508 1508 1511 1509 1512 1515 1516 1522 1524 1527 1532 1535 1539 1543
1519 1519 1518 1518 1517 1515 1513 1512 1510 1508 1508 1505 1503 1509 1516 1517 1513 1511 1511 1509 1508 1508 1507 1507 1506 1504 1505 1507 1508 1507 1506 1508 1508 1508 1509 1508 1509 1511 1512 1512 1512 1512 1511 1512 1511 1512 1518 1514 1503 1506 1508 1505 1508 1507 1505 1510 1514 1513 1514 1518 1515 1505 1509 1526 1531 1524 1525 1536 1531 1521 1520 1512 1511 1516 1509 1509 1512 1508 1510 1512 1513 1518 1521 1525 1530 1532 1536 1540
1519 1519 1519 1518 1517 1515 1514 1512 1510 1509 1507 1503 1507 1516 1515 1513 1513 1512 1511 1510 1510 1509 1507 1507 1507 1506 1506 1506 1507 1508 1506 1508 1508 1507 1511 1512 1513 1515 1515 1513 1513 1513 1511 1511 1510 1509 1513 1512 1504 1506 1510 1506 1505 1505 1504 1505 1506 1512 1517 1513 1507 1510 1512 1519 1532 1532 1535 1542 1527 1515 1521 1517 1516 1524 1517 1511 1513 1511 1510 1510 1512 1517 1520 1524 1527 1529 1534 1537
1519 1519 1519 1518 1516 1515 1514 1512 1511 1509 1506 1506 1512 1517 1514 1512 1514 1512 1512 1511 1509 1508 1505 1506 1508 1508 1505 1504 1506 1507 1506 1508 1508 1506 1510 1513 1514 1517 1516 1513 1514 1513 1512 1513 1512 1508 1511 1513 1506 1503 1506 1505 1504 1508 1509 1506 1504 1508 1509 1502 1505 1522 1524 1520 1531 1536 1537 1540 1527 1517 1520 1515 1512 1519 1518 1515 1515 1513 1511 1511 1512 1516 1519 1523 1526 1529 1533 1535
1519 1518 1518 1518 1516 1515 1514 1513 1512 1508 1507 1509 1514 1516 1514 1513 1513 1513 1513 1512 1509 1507 1507 1507 1508 1507 1505 1504 1506 1507 1506 1507 1507 1507 1512 1514 1515 1517 1516 1514 1514 1513 1512 1513 1511 1508 1510 1514 1510 1503 1503 1505 1506 1510 1513 1511 1508 1508 1508 1503 1504 1514 1517 1515 1520 1523 1527 1533 1527 1522 1523 1515 1508 1508 1511 1516 1516 1513 1514 1513 1513 1516 1519 1522 1525 1528 1531 1534
1519 1516 1516 1518 1516 1515 1515 1513 1511 1509 1510 1513 1514 1515 1515 1513 1512 1513 1514 1512 1510 1509 1509 1509 1507 1507 1508 1506 1506 1508 1507 1506 1506 1507 1511 1513 1515 1517 1516 1516 1515 1513 1513 1512 1511 1509 1508 1513 1512 1504 1503 1507 1508 1507 1506 1505 1508 1511 1514 1512 1509 1509 1508 1510 1510 1508 1514 1523 1524 1528 1527 1515 1508 1508 1511 1515 1515 1513 1514 1514 1514 1516 1518 1521 1524 1527 1529 1532
1518 1515 1516 1518 1516 1516 1515 1513 1512 1511 1512 1514 1515 1515 1516 1515 1513 1513 1513 1512 1511 1511 1510 1510 1508 1508 1509 1508 1507 1508 1508 1507 1508 1508 1510 1512 1514 1516 1517 1518 1517 1514 1513 1512 1510 1510 1510 1512 1510 1505 1505 1507 1503 1499 1497 1499 1500 1504 1509 1509 1508 1509 1510 1519 1520 1507 1506 1513 1515 1522 1526 1517 1512 1511 1511 1513 1515 1514 1515 1515 1515 1516 1518 1521 1524 1526 1528 1531
1517 1514 1517 1518 1516 1516 1514 1513 1514 1513 1512 1515 1517 1517 1517 1517 1515 1513 1513 1512 1511 1511 1510 1510 1510 1510 1510 1509 1509 1509 1508 1510 1510 1510 1511 1512 1514 1516 1517 1518 1518 1515 1513 1511 1510 1511 1511 1512 1512 1507 1501 1500 1499 1497 1498 1499 1496 1497 1502 1500 1501 1504 1507 1519 1524 1512 1509 1512 1507 1515 1525 1521 1514 1511 1510 1513 1514 1516 1518 1518 1518 1519 1520 1521 1523 1525 1528 1531
1516 1516 1518 1518 1517 1516 1513 1513 1515 1514 1515 1518 1519 1518 1518 1517 1515 1514 1513 1513 1512 1511 1511 1512 1512 1512 1512 1511 1511 1510 1510 1513 1514 1513 1514 1515 1516 1518 1519 1518 1517 1515 1512 1511 1511 1513 1513 1514 1516 1512 1502 1498 1500 1499 1498 1500 1500 1501 1500 1496 1497 1500 1499 1504 1507 1504 1508 1510 1510 1523 1530 1521 1513 1512 1512 1515 1516 1519 1521 1520 1520 1522 1522 1523 1524 1526 1529 1532
1518 1518 1519 1518 1517 1516 1513 1514 1515 1515 1517 1519 1518 1518 1519 1518 1518 1517 1515 1515 1515 1513 1513 1514 1514 1514 1514 1512 1512 1512 1512 1516 1518 1516 1515 1516 1518 1520 1519 1518 1517 1514 1513 1514 1513 1514 1516 1516 1518 1519 1516 1512 1510 1509 1506 1504 1503 1503 1501 1499 1501 1500 1498 1501 1501 1503 1509 1507 1507 1521 1526 1516 1513 1514 1515 1517 1518 1520 1521 1521 1522 1523 1524 1525 1526 1527 1530 1532
1518 1518 1518 1518 1518 1516 1515 1515 1516 1516 1518 1519 1518 1519 1519 1519 1521 1521 1519 1518 1518 1516 1515 1516 1516 1515 1514 1513 1513 1513 1512 1514 1518 1518 1517 1517 1518 1519 1519 1518 1517 1514 1515 1516 1514 1514 1516 1516 1518 1522 1524 1523 1522 1519 1514 1507 1504 1504 1504 1505 1506 1503 1502 1505 1506 1511 1516 1510 1506 1512 1515 1513 1515 1515 1516 1518 1519 1520 1522 1522 1523 1524 1526 1527 1528 1530 1532 1533
1517 1516 1516 1517 1517 1517 1518 1519 1517 1516 1518 1519 1520 1520 1519 1519 1521 1521 1520 1519 1519 1518 1517 1517 1516 1515 1515 1514 1515 1516 1514 1513 1516 1518 1519 1518 1518 1519 1519 1519 1517 1516 1516 1517 1515 1514 1514 1515 1515 1517 1519 1520 1521 1518 1512 1507 1507 1509 1508 1508 1507 1505 1505 1506 1508 1511 1511 1510 1512 1509 1508 1514 1518 1516 1517 1518 1518 1521 1523 1523 1524 1526 1527 1528 1529 1531 1533 1534
1517 1516 1517 1517 1518 1517 1517 1519 1519 1518 1518 1519 1521 1522 1521 1520 1520 1521 1521 1520 1520 1520 1518 1517 1516 1516 1517 1517 1516 1518 1518 1515 1517 1519 1520 1520 1519 1518 1519 1518 1517 1517 1517 1516 1515 1514 1515 1517 1516 1513 1514 1514 1513 1513 1510 1509 1510 1510 1510 1509 1507 1507 1507 1508 1510 1508 1504 1509 1516 1508 1504 1512 1515 1512 1515 1517 1517 1521 1523 1523 1525 1526 1528 1530 1530 1532 1533 1534
1517 1519 1520 1520 1519 1518 1517 1519 1520 1519 1520 1521 1522 1523 1522 1521 1522 1522 1522 1521 1521 1520 1519 1519 1519 1518 1519 1519 1518 1520 1521 1520 1521 1522 1521 1521 1520 1519 1518 1516 1515 1516 1515 1514 1515 1514 1515 1517 1516 1513 1513 1512 1509 1509 1509 1509 1510 1510 1510 1510 1508 1507 1509 1509 1509 1508 1507 1512 1516 1510 1506 1507 1507 1509 1512 1514 1517 1521 1522 1523 1526 1527 1529 1530 1531 1532 1534 1535
1518 1519 1521 1521 1520 1519 1520 1522 1522 1520 1521 1522 1523 1524 1523 1522 1524 1525 1524 1523 1522 1522 1521 1522 1522 1520 1519 1519 1519 1522 1524 1524 1525 1525 1523 1523 1522 1521 1521 1520 1517 1515 1514 1513 1515 1515 1516 1518 1517 1514 1514 1511 1509 1509 1509 1509 1510 1510 1511 1511 1509 1508 1509 1510 1510 1510 1510 1511 1510 1508 1508 1507 1506 1508 1511 1513 1518 1521 1523 1524 1527 1528 1530 1531 1531 1533 1534 1535
1519 1520 1520 1521 1521 1521 1522 1523 1522 1520 1521 1522 1524 1525 1524 1524 1525 1526 1526 1525 1525 1524 1523 1523 1524 1522 1520 1520 1521 1523 1525 1525 1525 1526 1525 1524 1523 1522 1523 1524 1520 1517 1515 1515 1515 1516 1518 1520 1518 1516 1516 1513 1510 1508 1508 1509 1510 1511 1513 1513 1510 1510 1510 1511 1512 1511 1511 1512 1509 1507 1510 1512 1510 1509 1511 1516 1521 1522 1523 1525 1527 1529 1530 1531 1532 1533 1534 1536
1520 1520 1520 1520 1520 1522 1523 1522 1521 1520 1520 1522 1523 1525 1525 1526 1526 1526 1527 1527 1527 1526 1525 1525 1525 1523 1522 1523 1524 1525 1526 1526 1525 1526 1525 1524 1524 1524 1524 1524 1523 1520 1518 1518 1518 1516 1517 1519 1516 1517 1521 1518 1512 1511 1511 1509 1508 1511 1516 1516 1514 1513 1514 1513 1515 1515 1514 1515 1513 1511 1513 1515 1513 1513 1516 1520 1523 1523 1523 1525 1527 1530 1531 1531 1533 1534 1535 1536
1521 1521 1521 1520 1520 1521 1522 1521 1521 1521 1521 1522 1524 1525 1526 1526 1527 1527 1528 1529 1529 1528 1528 1527 1525 1524 1523 1526 1527 1528 1528 1527 1527 1527 1527 1526 1525 1526 1525 1524 1523 1523 1521 1520 1520 1518 1519 1520 1516 1519 1527 1522 1515 1515 1513 1512 1516 1520 1521 1520 1518 1516 1515 1515 1516 1517 1515 1515 1516 1517 1515 1514 1515 1517 1519 1523 1525 1524 1524 1526 1528 1530 1531 1533 1534 1535 1537 1538